#timestamp,LO_Frequency,Hit 
1501642815.8,286046993.5,N
1501642835.7,286046995.9,N
1501642855.5,286046999.5,N
1501642875.3,286046996.7,N
1501642895.2,286046994.6,N
1501642915.9,286046993.0,N
1501642935.7,286046989.0,N
1501642955.6,286046987.0,N
1501642975.4,286046990.9,N
1501642995.3,286046990.7,N
1501643015.1,286046994.7,N
1501643035.9,286046994.3,N
1501643055.7,286046991.8,N
1501643075.5,286046992.0,N
1501643095.4,286046994.6,N
1501643115.2,286046992.2,N
1501643135.0,286046993.9,N
1501643135.9,286046993.9,N
1501643155.8,286046995.7,N
1501643175.6,286046997.2,N
1501643195.4,286046998.9,N
1501643215.6,286046997.0,N
1501643235.4,286046997.4,N
1501643255.3,286046995.5,N
1501643275.1,286046995.5,N
1501643276.0,286046995.5,N
1501643295.8,286046997.5,N
1501643315.7,286046996.1,N
1501643335.5,286046997.6,N
1501643355.3,286046997.0,N
1501643375.2,286046999.3,N
1501643395.9,286047000.4,N
1501643415.7,286046998.1,N
1501643435.6,286047000.9,N
1501643455.4,286047003.5,N
1501643475.2,286047005.6,N
1501643495.0,286046999.8,N
1501643495.9,286046999.8,N
1501643515.8,286046998.9,N
1501643535.6,286046996.8,N
1501643555.4,286046995.0,N
1501643575.3,286046999.6,N
1501643595.1,286046996.5,N
1501643615.8,286046996.0,N
1501643635.7,286046993.4,N
1501643655.5,286046997.4,N
1501643675.3,286046995.4,N
1501643695.2,286046998.7,N
1501643715.9,286047001.0,N
1501643735.7,286047005.9,N
1501643755.6,286047003.3,N
1501643775.4,286047002.3,N
1501643795.2,286047002.8,N
1501643815.3,286047000.2,N
1501643835.1,286047002.3,N
1501643836.0,286047002.3,N
1501643855.8,286047000.0,N
1501643875.7,286046999.8,N
1501643895.2,286047000.1,N
1501643915.1,286047001.6,N
1501643916.0,286047001.6,N
1501643935.8,286047001.5,N
1501643955.6,286046999.9,N
1501643975.5,286047000.5,N
1501643995.3,286047001.1,N
1501644015.1,286047001.1,N
1501644035.9,286047000.6,N
1501644055.7,286046998.1,N
1501644075.5,286047002.0,N
1501644095.4,286047001.8,N
1501644115.2,286047001.4,N
1501644135.0,286047002.2,N
1501644135.9,286047002.2,N
1501644155.8,286047001.0,N
1501644175.6,286047001.3,N
1501644195.4,286047003.1,N
1501644215.3,286047005.1,N
1501644235.1,286047004.6,N
1501644236.0,286047004.6,N
1501644255.8,286047002.9,N
1501644275.2,286047005.4,N
1501644295.0,286047005.0,N
1501644295.9,286047005.0,N
1501644315.7,286047007.1,N
1501644335.6,286047007.4,N
1501644355.4,286047007.0,N
1501644375.3,286047009.1,N
1501644395.1,286047008.3,N
1501644396.0,286047008.3,N
1501644415.8,286047007.7,N
1501644435.7,286047008.2,N
1501644455.5,286047007.9,N
1501644475.3,286047007.8,N
1501644495.2,286047009.0,N
1501644515.9,286047010.3,N
1501644535.7,286047008.4,N
1501644555.6,286047009.0,N
1501644575.4,286047009.0,N
1501644595.2,286047007.9,N
1501644615.0,286047010.4,N
1501644616.0,286047010.4,N
1501644635.7,286047009.4,N
1501644655.6,286047015.4,N
1501644675.4,286047014.7,N
1501644695.2,286047016.5,N
1501644715.1,286047014.2,N
1501644716.0,286047014.2,N
1501644735.8,286047013.9,N
1501644755.6,286047009.3,N
1501644775.5,286047014.0,N
1501644795.3,286047013.6,N
1501644815.1,286047012.3,N
1501644835.9,286047008.5,N
1501644855.2,286047006.3,N
1501644875.9,286047007.6,N
1501644895.7,286047003.0,N
1501644915.3,286047003.1,N
1501644935.2,286047009.1,N
1501644955.9,286047014.0,N
1501644975.7,286047007.9,N
1501644995.5,286047004.5,N
1501645015.4,286047003.7,N
1501645035.2,286047004.4,N
1501645055.0,286047004.6,N
1501645056.0,286047004.6,N
1501645075.8,286047004.8,N
1501645095.6,286047005.6,N
1501645115.2,286047003.7,N
1501645135.0,286047005.4,N
1501645135.9,286047005.4,N
1501645155.8,286047003.0,N
1501645175.6,286047005.2,N
1501645195.4,286047005.7,N
1501645215.3,286047003.2,N
1501645235.1,286047003.7,N
1501645255.8,286046999.7,N
1501645275.7,286046998.2,N
1501645295.5,286047000.2,N
1501645315.3,286047001.0,N
1501645335.2,286047002.2,N
1501645355.9,286047004.3,N
1501645375.7,286047003.6,N
1501645395.6,286047002.0,N
1501645415.4,286047000.3,N
1501645435.2,286047000.3,N
1501645455.1,286047002.3,N
1501645456.0,286047002.3,N
1501645475.8,286047001.1,N
1501645495.6,286047002.8,N
1501645515.4,286047002.3,N
1501645535.3,286047000.2,N
1501645555.1,286047001.1,N
1501645575.8,286046998.5,N
1501645595.7,286047001.0,N
1501645615.5,286046998.3,N
1501645635.3,286047000.9,N
1501645655.2,286046999.6,N
1501645675.9,286046999.6,N
1501645695.7,286046999.4,N
1501645715.6,286046997.8,N
1501645735.4,286046997.2,N
1501645755.2,286046999.2,N
1501645775.1,286046998.3,N
1501645776.0,286046998.3,N
1501645795.8,286046998.7,N
1501645815.6,286046999.5,N
1501645835.5,286046999.4,N
1501645855.3,286046998.3,N
1501645875.1,286047000.9,N
1501645895.9,286046998.3,N
1501645915.7,286046995.0,N
1501645935.5,286046995.1,N
1501645955.3,286046997.6,N
1501645975.2,286046995.3,N
1501645995.0,286046997.7,N
1501645995.9,286046997.7,N
1501646015.7,286046999.1,N
1501646035.6,286046998.1,N
1501646055.4,286046998.8,N
1501646075.2,286047001.2,N
1501646095.1,286046998.9,N
1501646096.0,286046998.9,N
1501646115.8,286046997.4,N
1501646135.6,286046997.0,N
1501646155.5,286046999.4,N
1501646175.3,286047000.8,N
1501646195.1,286046998.9,N
1501646215.9,286046996.7,N
1501646235.7,286046996.6,N
1501646255.5,286046995.4,N
1501646275.3,286046996.3,N
1501646295.2,286046997.7,N
1501646315.0,286046995.9,N
1501646315.9,286046995.9,N
1501646335.7,286046993.4,N
1501646355.6,286046993.9,N
1501646375.4,286046991.7,N
1501646395.2,286046994.7,N
